Regional Weather Roundup
Issued by NWS

Home | Current Version | Previous Version | Text Only | Print | Product List | Glossary On
Versions: 1 2 3 4 5 6 7 8 9 10 11 12 13 14 15 16 17 18 19 20 21 22 23 24 25 26 27 28 29 30 31 32 33 34 35 36 37 38 39 40 41 42 43 44 45 46 47 48 49 50
336
ASUS43 KOAX 232010
RWRNE

WEATHER ROUNDUP FOR NEBRASKA
NATIONAL WEATHER SERVICE OMAHA NE
300 PM CDT MON APR 23 2018

NOTES: SATELLITE DATA IS BEING USED TO AUGMENT CLOUD COVER ABOVE
       12000 FEET.
       "FAIR" INDICATES FEW OR NO CLOUDS BELOW 12,000 FEET WITH NO
       SIGNIFICANT WEATHER AND/OR OBSTRUCTIONS TO VISIBILITY.


NEZ001>004-019>022-054>056-232100-
NEBRASKA PANHANDLE

CITY           SKY/WX    TMP DP  RH WIND       PRES   REMARKS
SCOTTSBLUFF    FAIR      69  40  34 SE21G28   29.98F
ALLIANCE       FAIR      66  41  40 S21G29    30.03F
CHADRON        FAIR      69  40  34 SE17G24   29.98F
GORDON         FAIR      66  39  37 S17       30.04F
KIMBALL        FAIR      66  37  34 SE21G28   30.02F
SIDNEY         FAIR      66  39  37 S21G28    30.05F
$$

NEZ057>060-069>072-079>082-232100-
SOUTHWEST NEBRASKA

CITY           SKY/WX    TMP DP  RH WIND       PRES   REMARKS
NORTH PLATTE   FAIR      69  42  37 S18       30.09F
IMPERIAL       FAIR      66  38  35 SE13G23   30.08F
LEXINGTON      PTSUNNY   68  39  34 S8G16     30.11F
MCCOOK         FAIR      67  41  38 S15G22    30.09F
OGALLALA       FAIR      66  39  38 S12G20    30.07F
$$

NEZ005>010-023>029-035>040-094-232100-
NORTH CENTRAL NEBRASKA

CITY           SKY/WX    TMP DP  RH WIND       PRES   REMARKS
VALENTINE      PTSUNNY   69  38  32 S10G25    30.09F
AINSWORTH      PTSUNNY   67  40  37 S16       30.10F
BROKEN BOW     PTSUNNY   67  40  37 S12G22    30.11F
O`NEILL        CLOUDY    71  35  26 NE8       30.13F
ORD            PTSUNNY   67  36  31 SE9G17    30.11F
THEDFORD       PTSUNNY   66  39  36 S16G24    30.10F
$$

NEZ041-046>049-061>064-073>077-083>087-232100-
SOUTH CENTRAL NEBRASKA

CITY           SKY/WX    TMP DP  RH WIND       PRES   REMARKS
GRAND ISLAND   SUNNY     69  40  34 VRB6      30.12F
AURORA         MOSUNNY   70  35  28 S5        30.11F
HASTINGS       SUNNY     67  41  38 E8G17     30.12F
HEBRON         SUNNY     71  34  25 CALM      30.10F
HOLDREGE       MOSUNNY   67  40  37 S7        30.11F
KEARNEY        MOSUNNY   68  39  34 S13G18    30.12F
YORK             N/A     68  36  30 CALM      30.11F
$$

NEZ011>018-030>034-042>045-232100-
NORTHEAST NEBRASKA

CITY           SKY/WX    TMP DP  RH WIND       PRES   REMARKS
NORFOLK        SUNNY     69  32  25 S6        30.11F
ALBION         MOSUNNY   68  37  31 SE6       30.12F
BLAIR          SUNNY     73  31  21 E10G16    30.11F
COLUMBUS       SUNNY     70  34  26 E6        30.12F
FREMONT        SUNNY     72  30  21 SE7       30.12F
TEKAMAH        SUNNY     72  28  19 VRB5      30.11F
WAYNE          SUNNY     71  29  21 E8        30.12F
$$

NEZ050>053-065>068-078-088>093-232100-
SOUTHEAST NEBRASKA

CITY           SKY/WX    TMP DP  RH WIND       PRES   REMARKS
LINCOLN        SUNNY     73  27  18 NE5       30.12F
OMAHA EPPLEY   MOSUNNY   73  29  19 VRB3      30.10F
BEATRICE       SUNNY     73  33  23 E8        30.10F
FALLS CITY     SUNNY     73  29  19 NE10G17   30.07F
NEBRASKA CITY  SUNNY     73  30  20 CALM      30.09F
PLATTSMOUTH    SUNNY     73  26  17 NE8G17    30.10F
$$

NEZ044-045-051>053-067-232100-
OMAHA AREA

CITY           SKY/WX    TMP DP  RH WIND       PRES   REMARKS
OMAHA EPPLEY   MOSUNNY   73  29  19 VRB3      30.10F
BLAIR          SUNNY     73  31  21 E10G16    30.11F
FREMONT        SUNNY     72  30  21 SE7       30.12F
MILLARD        SUNNY     73  33  23 NE6       30.11F
PLATTSMOUTH    SUNNY     73  26  17 NE8G17    30.10F
WAHOO          FAIR      72  20  13 E9        30.11F
$$




USA.gov is the U.S. government's official web portal to all federal, state and local government web resources and services.